Location: Unspecified
(51.6250°N, 0.8230°E)
Time: 10:26:02
(UTC+01:00)

Okean 3 - Pass Details

Date: 14 August 2020
Orbit: 576 x 601 km, 82.5° (Epoch: 23 September)

Event Time Altitude Azimuth Distance (km) Brightness Sun altitude
Rises 22:52:47 0° 347° (NNW) 2,856 8.3 -18.7°
Reaches altitude 10° 22:55:01 10° 346° (NNW) 1,952 7.2 -18.9°
Maximum altitude 22:59:19 71° 263° (W) 640 3.6 -19.2°
Enters shadow 23:00:49 39° 190° (S) 910 4.0 -19.4°
